Year,Month,Day,Hour,Minute,Value (Times are PST for temperature in C)
2020,01,19,00,00,30.20
2020,01,19,00,01,30.20
2020,01,19,00,02,30.20
2020,01,19,00,03,30.20
2020,01,19,00,04,30.30
2020,01,19,00,05,30.20
2020,01,19,00,06,30.20
2020,01,19,00,07,30.20
2020,01,19,00,08,30.20
2020,01,19,00,09,30.20
2020,01,19,00,10,30.20
2020,01,19,00,11,30.20
2020,01,19,00,12,30.20
2020,01,19,00,13,30.20
2020,01,19,00,14,30.20
2020,01,19,00,15,30.10
2020,01,19,00,16,30.20
2020,01,19,00,17,30.20
2020,01,19,00,18,30.20
2020,01,19,00,19,30.20
2020,01,19,00,20,30.20
2020,01,19,00,21,30.20
2020,01,19,00,22,30.20
2020,01,19,00,23,30.30
2020,01,19,00,24,30.30
2020,01,19,00,25,30.20
2020,01,19,00,26,30.20
2020,01,19,00,27,30.20
2020,01,19,00,28,30.20
2020,01,19,00,29,30.30
2020,01,19,00,30,30.30
2020,01,19,00,31,30.30
2020,01,19,00,32,30.30
2020,01,19,00,33,30.30
2020,01,19,00,34,30.30
2020,01,19,00,35,30.30
2020,01,19,00,36,30.30
2020,01,19,00,37,30.30
2020,01,19,00,38,30.30
2020,01,19,00,39,30.40
2020,01,19,00,40,30.40
2020,01,19,00,41,30.40
2020,01,19,00,42,30.40
2020,01,19,00,43,30.30
2020,01,19,00,44,30.30
2020,01,19,00,45,30.30
2020,01,19,00,46,30.40
2020,01,19,00,47,30.40
2020,01,19,00,48,30.40
2020,01,19,00,49,30.40
2020,01,19,00,50,30.30
2020,01,19,00,51,30.30
2020,01,19,00,52,30.30
2020,01,19,00,53,30.30
2020,01,19,00,54,30.20
2020,01,19,00,55,30.20
2020,01,19,00,56,30.20
2020,01,19,00,57,30.20
2020,01,19,00,58,30.20
2020,01,19,00,59,30.20
2020,01,19,01,00,30.10
2020,01,19,01,01,30.10
2020,01,19,01,02,30.10
2020,01,19,01,03,30.10
2020,01,19,01,04,30.10
2020,01,19,01,05,30.10
2020,01,19,01,06,30.00
2020,01,19,01,07,30.10
2020,01,19,01,08,30.10
2020,01,19,01,09,30.20
2020,01,19,01,10,30.20
2020,01,19,01,11,30.20
2020,01,19,01,12,30.20
2020,01,19,01,13,30.20
2020,01,19,01,14,30.20
2020,01,19,01,15,30.20
2020,01,19,01,16,30.20
2020,01,19,01,17,30.20
2020,01,19,01,18,30.20
2020,01,19,01,19,30.20
2020,01,19,01,20,30.20
2020,01,19,01,21,30.20
2020,01,19,01,22,30.30
2020,01,19,01,23,30.30
2020,01,19,01,24,30.30
2020,01,19,01,25,30.30
2020,01,19,01,26,30.30
2020,01,19,01,27,30.30
2020,01,19,01,28,30.30
2020,01,19,01,29,30.30
2020,01,19,01,30,30.30
2020,01,19,01,31,30.30
2020,01,19,01,32,30.20
2020,01,19,01,33,30.20
2020,01,19,01,34,30.10
2020,01,19,01,35,30.10
2020,01,19,01,36,30.10
2020,01,19,01,37,30.10
2020,01,19,01,38,30.10
2020,01,19,01,39,30.10
2020,01,19,01,40,30.10
2020,01,19,01,41,30.10
2020,01,19,01,42,30.10
2020,01,19,01,43,30.10
2020,01,19,01,44,30.10
2020,01,19,01,45,30.10
2020,01,19,01,46,30.10
2020,01,19,01,47,30.10
2020,01,19,01,48,30.10
2020,01,19,01,49,30.20
2020,01,19,01,50,30.20
2020,01,19,01,51,30.20
2020,01,19,01,52,30.20
2020,01,19,01,53,30.20
2020,01,19,01,54,30.20
2020,01,19,01,55,30.20
2020,01,19,01,56,30.30
2020,01,19,01,57,30.30
2020,01,19,01,58,30.30
2020,01,19,01,59,30.30
2020,01,19,02,00,30.40
2020,01,19,02,01,30.40
2020,01,19,02,02,30.40
2020,01,19,02,03,30.30
2020,01,19,02,04,30.30
2020,01,19,02,05,30.40
2020,01,19,02,06,30.40
2020,01,19,02,07,30.50
2020,01,19,02,08,30.50
2020,01,19,02,09,30.50
2020,01,19,02,10,30.40
2020,01,19,02,11,30.40
2020,01,19,02,12,30.40
2020,01,19,02,13,30.40
2020,01,19,02,14,30.40
2020,01,19,02,15,30.40
2020,01,19,02,16,30.40
2020,01,19,02,17,30.40
2020,01,19,02,18,30.40
2020,01,19,02,19,30.30
2020,01,19,02,20,30.30
2020,01,19,02,21,30.30
2020,01,19,02,22,30.30
2020,01,19,02,23,30.30
2020,01,19,02,24,30.30
2020,01,19,02,25,30.30
2020,01,19,02,26,30.30
2020,01,19,02,27,30.30
2020,01,19,02,28,30.40
2020,01,19,02,29,30.40
2020,01,19,02,30,30.40
2020,01,19,02,31,30.40
2020,01,19,02,32,30.40
2020,01,19,02,33,30.50
2020,01,19,02,34,30.50
2020,01,19,02,35,30.50
2020,01,19,02,36,30.60
2020,01,19,02,37,30.60
2020,01,19,02,38,30.60
2020,01,19,02,39,30.60
2020,01,19,02,40,30.60
2020,01,19,02,41,30.60
2020,01,19,02,42,30.60
2020,01,19,02,43,30.60
2020,01,19,02,44,30.60
2020,01,19,02,45,30.60
2020,01,19,02,46,30.70
2020,01,19,02,47,30.70
2020,01,19,02,48,30.70
2020,01,19,02,49,30.80
2020,01,19,02,50,30.80
2020,01,19,02,51,30.80
2020,01,19,02,52,30.80
2020,01,19,02,53,30.80
2020,01,19,02,54,30.80
2020,01,19,02,55,30.80
2020,01,19,02,56,30.80
2020,01,19,02,57,30.80
2020,01,19,02,58,30.80
2020,01,19,02,59,30.80
2020,01,19,03,00,30.80
2020,01,19,03,01,30.80
2020,01,19,03,02,30.80
2020,01,19,03,03,30.80
2020,01,19,03,04,30.80
2020,01,19,03,05,30.80
2020,01,19,03,06,30.80
2020,01,19,03,07,30.80
2020,01,19,03,08,30.80
2020,01,19,03,09,30.80
2020,01,19,03,10,30.80
2020,01,19,03,11,30.80
2020,01,19,03,12,30.70
2020,01,19,03,13,30.70
2020,01,19,03,14,30.70
2020,01,19,03,15,30.70
2020,01,19,03,16,30.80
2020,01,19,03,17,30.80
2020,01,19,03,18,30.70
2020,01,19,03,19,30.70
2020,01,19,03,20,30.70
2020,01,19,03,21,30.70
2020,01,19,03,22,30.70
2020,01,19,03,23,30.70
2020,01,19,03,24,30.70
2020,01,19,03,25,30.70
2020,01,19,03,26,30.80
2020,01,19,03,27,30.90
2020,01,19,03,28,30.90
2020,01,19,03,29,30.90
2020,01,19,03,30,31.00
2020,01,19,03,31,31.00
2020,01,19,03,32,31.00
2020,01,19,03,33,31.00
2020,01,19,03,34,31.00
2020,01,19,03,35,31.00
2020,01,19,03,36,31.00
2020,01,19,03,37,31.00
2020,01,19,03,38,30.90
2020,01,19,03,39,30.90
2020,01,19,03,40,30.90
2020,01,19,03,41,30.90
2020,01,19,03,42,30.90
2020,01,19,03,43,30.90
2020,01,19,03,44,30.90
2020,01,19,03,45,30.90
2020,01,19,03,46,30.80
2020,01,19,03,47,30.80
2020,01,19,03,48,30.80
2020,01,19,03,49,30.70
2020,01,19,03,50,30.80
2020,01,19,03,51,30.80
2020,01,19,03,52,30.80
2020,01,19,03,53,30.80
2020,01,19,03,54,30.80
2020,01,19,03,55,30.70
2020,01,19,03,56,30.70
2020,01,19,03,57,30.70
2020,01,19,03,58,30.70
2020,01,19,03,59,30.70
2020,01,19,04,00,30.70
2020,01,19,04,01,30.60
2020,01,19,04,02,30.60
2020,01,19,04,03,30.60
2020,01,19,04,04,30.60
2020,01,19,04,05,30.60
2020,01,19,04,06,30.60
2020,01,19,04,07,30.60
2020,01,19,04,08,30.60
2020,01,19,04,09,30.60
2020,01,19,04,10,30.60
2020,01,19,04,11,30.70
2020,01,19,04,12,30.70
2020,01,19,04,13,30.70
2020,01,19,04,14,30.70
2020,01,19,04,15,30.70
2020,01,19,04,16,30.80
2020,01,19,04,17,30.80
2020,01,19,04,18,30.80
2020,01,19,04,19,30.80
2020,01,19,04,20,30.80
2020,01,19,04,21,30.80
2020,01,19,04,22,30.80
2020,01,19,04,23,30.80
2020,01,19,04,24,30.80
2020,01,19,04,25,30.80
2020,01,19,04,26,30.70
2020,01,19,04,27,30.70
2020,01,19,04,28,30.70
2020,01,19,04,29,30.70
2020,01,19,04,30,30.70
2020,01,19,04,31,30.70
2020,01,19,04,32,30.70
2020,01,19,04,33,30.70
2020,01,19,04,34,30.60
2020,01,19,04,35,30.60
2020,01,19,04,36,30.70
2020,01,19,04,37,30.70
2020,01,19,04,38,30.70
2020,01,19,04,39,30.70
2020,01,19,04,40,30.70
2020,01,19,04,41,30.70
2020,01,19,04,42,30.70
2020,01,19,04,43,30.70
2020,01,19,04,44,30.70
2020,01,19,04,45,30.60
2020,01,19,04,46,30.60
2020,01,19,04,47,30.60
2020,01,19,04,48,30.60
2020,01,19,04,49,30.60
2020,01,19,04,50,30.60
2020,01,19,04,51,30.50
2020,01,19,04,52,30.50
2020,01,19,04,53,30.50
2020,01,19,04,54,30.60
2020,01,19,04,55,30.60
2020,01,19,04,56,30.60
2020,01,19,04,57,30.60
2020,01,19,04,58,30.60
2020,01,19,04,59,30.60
2020,01,19,05,00,30.60
2020,01,19,05,01,30.50
2020,01,19,05,02,30.50
2020,01,19,05,03,30.50
2020,01,19,05,04,30.60
2020,01,19,05,05,30.70
2020,01,19,05,06,30.70
2020,01,19,05,07,30.70
2020,01,19,05,08,30.70
2020,01,19,05,09,30.70
2020,01,19,05,10,30.70
2020,01,19,05,11,30.70
2020,01,19,05,12,30.70
2020,01,19,05,13,30.70
2020,01,19,05,14,30.70
2020,01,19,05,15,30.70
2020,01,19,05,16,30.70
2020,01,19,05,17,30.70
2020,01,19,05,18,30.70
2020,01,19,05,19,30.60
2020,01,19,05,20,30.60
2020,01,19,05,21,30.60
2020,01,19,05,22,30.60
2020,01,19,05,23,30.60
2020,01,19,05,24,30.70
2020,01,19,05,25,30.70
2020,01,19,05,26,30.60
2020,01,19,05,27,30.60
2020,01,19,05,28,30.60
2020,01,19,05,29,30.50
2020,01,19,05,30,30.40
2020,01,19,05,31,30.40
2020,01,19,05,32,30.40
2020,01,19,05,33,30.40
2020,01,19,05,34,30.40
2020,01,19,05,35,30.40
2020,01,19,05,36,30.50
2020,01,19,05,37,30.50
2020,01,19,05,38,30.60
2020,01,19,05,39,30.60
2020,01,19,05,40,30.60
2020,01,19,05,41,30.60
2020,01,19,05,42,30.50
2020,01,19,05,43,30.50
2020,01,19,05,44,30.60
2020,01,19,05,45,30.60
2020,01,19,05,46,30.60
2020,01,19,05,47,30.60
2020,01,19,05,48,30.60
2020,01,19,05,49,30.60
2020,01,19,05,50,30.60
2020,01,19,05,51,30.60
2020,01,19,05,52,30.60
2020,01,19,05,53,30.60
2020,01,19,05,54,30.60
2020,01,19,05,55,30.60
2020,01,19,05,56,30.60
2020,01,19,05,57,30.50
2020,01,19,05,58,30.40
2020,01,19,05,59,30.40
2020,01,19,06,00,30.40
2020,01,19,06,01,30.40
2020,01,19,06,02,30.40
2020,01,19,06,03,30.40
2020,01,19,06,04,30.40
2020,01,19,06,05,30.40
2020,01,19,06,06,30.30
2020,01,19,06,07,30.40
2020,01,19,06,08,30.40
2020,01,19,06,09,30.40
2020,01,19,06,10,30.40
2020,01,19,06,11,30.30
2020,01,19,06,12,30.40
2020,01,19,06,13,30.40
2020,01,19,06,14,30.40
2020,01,19,06,15,30.40
2020,01,19,06,16,30.50
2020,01,19,06,17,30.50
2020,01,19,06,18,30.50
2020,01,19,06,19,30.50
2020,01,19,06,20,30.50
2020,01,19,06,21,30.50
2020,01,19,06,22,30.60
2020,01,19,06,23,30.50
2020,01,19,06,24,30.50
2020,01,19,06,25,30.50
2020,01,19,06,26,30.50
2020,01,19,06,27,30.40
2020,01,19,06,28,30.40
2020,01,19,06,29,30.30
2020,01,19,06,30,30.30
2020,01,19,06,31,30.30
2020,01,19,06,32,30.30
2020,01,19,06,33,30.30
2020,01,19,06,34,30.30
2020,01,19,06,35,30.30
2020,01,19,06,36,30.20
2020,01,19,06,37,30.20
2020,01,19,06,38,30.20
2020,01,19,06,39,30.20
2020,01,19,06,40,30.20
2020,01,19,06,41,30.10
2020,01,19,06,42,30.10
2020,01,19,06,43,30.10
2020,01,19,06,44,30.00
2020,01,19,06,45,29.90
2020,01,19,06,46,29.90
2020,01,19,06,47,29.80
2020,01,19,06,48,29.80
2020,01,19,06,49,29.80
2020,01,19,06,50,29.80
2020,01,19,06,51,29.80
2020,01,19,06,52,29.80
2020,01,19,06,53,29.80
2020,01,19,06,54,29.80
2020,01,19,06,55,29.70
2020,01,19,06,56,29.70
2020,01,19,06,57,29.60
2020,01,19,06,58,29.60
2020,01,19,06,59,29.60
2020,01,19,07,00,29.60
2020,01,19,07,01,29.50
2020,01,19,07,02,29.40
2020,01,19,07,03,29.30
2020,01,19,07,04,29.30
2020,01,19,07,05,29.10
2020,01,19,07,06,29.00
2020,01,19,07,07,28.80
2020,01,19,07,08,28.60
2020,01,19,07,09,28.40
2020,01,19,07,10,28.30
2020,01,19,07,11,28.10
2020,01,19,07,12,27.90
2020,01,19,07,13,27.80
2020,01,19,07,14,27.70
2020,01,19,07,15,27.60
2020,01,19,07,16,27.60
2020,01,19,07,17,27.50
2020,01,19,07,18,27.50
2020,01,19,07,19,27.50
2020,01,19,07,20,27.70
2020,01,19,07,21,27.80
2020,01,19,07,22,27.80
2020,01,19,07,23,27.80
2020,01,19,07,24,27.80
2020,01,19,07,25,27.70
2020,01,19,07,26,27.70
2020,01,19,07,27,27.60
2020,01,19,07,28,27.50
2020,01,19,07,29,27.50
2020,01,19,07,30,27.40
2020,01,19,07,31,27.30
2020,01,19,07,32,27.30
2020,01,19,07,33,27.20
2020,01,19,07,34,27.10
2020,01,19,07,35,27.10
2020,01,19,07,36,27.00
2020,01,19,07,37,26.90
2020,01,19,07,38,26.90
2020,01,19,07,39,26.80
2020,01,19,07,40,26.80
2020,01,19,07,41,26.80
2020,01,19,07,42,26.80
2020,01,19,07,43,26.70
2020,01,19,07,44,26.70
2020,01,19,07,45,26.70
2020,01,19,07,46,26.60
2020,01,19,07,47,26.60
2020,01,19,07,48,26.70
2020,01,19,07,49,26.70
2020,01,19,07,50,26.70
2020,01,19,07,51,26.70
2020,01,19,07,52,26.70
2020,01,19,07,53,26.70
2020,01,19,07,54,26.70
2020,01,19,07,55,26.70
2020,01,19,07,56,26.70
2020,01,19,07,57,26.80
2020,01,19,07,58,26.90
2020,01,19,07,59,26.90
2020,01,19,08,00,26.90
2020,01,19,08,01,26.90
2020,01,19,08,02,26.90
2020,01,19,08,03,26.90
2020,01,19,08,04,26.90
2020,01,19,08,05,26.80
2020,01,19,08,06,26.80
2020,01,19,08,07,26.70
2020,01,19,08,08,26.70
2020,01,19,08,09,26.60
2020,01,19,08,10,26.50
2020,01,19,08,11,26.50
2020,01,19,08,12,26.50
2020,01,19,08,13,26.50
2020,01,19,08,14,26.60
2020,01,19,08,15,26.70
2020,01,19,08,16,26.70
2020,01,19,08,17,26.70
2020,01,19,08,18,26.70
2020,01,19,08,19,26.70
2020,01,19,08,20,26.70
2020,01,19,08,21,26.70
2020,01,19,08,22,26.70
2020,01,19,08,23,26.80
2020,01,19,08,24,26.80
2020,01,19,08,25,26.80
2020,01,19,08,26,26.80
2020,01,19,08,27,26.80
2020,01,19,08,28,26.80
2020,01,19,08,29,26.90
2020,01,19,08,30,26.90
2020,01,19,08,31,27.00
2020,01,19,08,32,27.00
2020,01,19,08,33,27.00
2020,01,19,08,34,26.90
2020,01,19,08,35,26.90
2020,01,19,08,36,26.90
2020,01,19,08,37,26.80
2020,01,19,08,38,26.80
2020,01,19,08,39,26.80
2020,01,19,08,40,26.70
2020,01,19,08,41,26.70
2020,01,19,08,42,26.60
2020,01,19,08,43,26.60
2020,01,19,08,44,26.50
2020,01,19,08,45,26.40
2020,01,19,08,46,26.40
2020,01,19,08,47,26.40
2020,01,19,08,48,26.30
2020,01,19,08,49,26.30
2020,01,19,08,50,26.30
2020,01,19,08,51,26.30
2020,01,19,08,52,26.40
2020,01,19,08,53,26.50
2020,01,19,08,54,26.60
2020,01,19,08,55,26.70
2020,01,19,08,56,26.80
2020,01,19,08,57,26.80
2020,01,19,08,58,26.90
2020,01,19,08,59,27.00
2020,01,19,09,00,27.10
2020,01,19,09,01,27.10
2020,01,19,09,02,27.20
2020,01,19,09,03,27.20
2020,01,19,09,04,27.20
2020,01,19,09,05,27.30
2020,01,19,09,06,27.30
2020,01,19,09,07,27.30
2020,01,19,09,08,27.30
2020,01,19,09,09,27.30
2020,01,19,09,10,27.20
2020,01,19,09,11,27.20
2020,01,19,09,12,27.20
2020,01,19,09,13,27.20
2020,01,19,09,14,27.20
2020,01,19,09,15,27.20
2020,01,19,09,16,27.20
2020,01,19,09,17,27.20
2020,01,19,09,18,27.10
2020,01,19,09,19,27.10
2020,01,19,09,20,27.10
2020,01,19,09,21,27.00
2020,01,19,09,22,27.00
2020,01,19,09,23,27.00
2020,01,19,09,24,26.90
2020,01,19,09,25,26.90
2020,01,19,09,26,26.90
2020,01,19,09,27,26.90
2020,01,19,09,28,26.90
2020,01,19,09,29,26.90
2020,01,19,09,30,26.90
2020,01,19,09,31,26.90
2020,01,19,09,32,26.90
2020,01,19,09,33,26.80
2020,01,19,09,34,26.80
2020,01,19,09,35,26.80
2020,01,19,09,36,26.70
2020,01,19,09,37,26.70
2020,01,19,09,38,26.60
2020,01,19,09,39,26.60
2020,01,19,09,40,26.50
2020,01,19,09,41,26.50
2020,01,19,09,42,26.40
2020,01,19,09,43,26.40
2020,01,19,09,44,26.40
2020,01,19,09,45,26.30
2020,01,19,09,46,26.30
2020,01,19,09,47,26.30
2020,01,19,09,48,26.30
2020,01,19,09,49,26.30
2020,01,19,09,50,26.30
2020,01,19,09,51,26.30
2020,01,19,09,52,26.30
2020,01,19,09,53,26.20
2020,01,19,09,54,26.20
2020,01,19,09,55,26.20
2020,01,19,09,56,26.20
2020,01,19,09,57,26.20
2020,01,19,09,58,26.10
2020,01,19,09,59,26.10
2020,01,19,10,00,26.10
2020,01,19,10,01,26.10
2020,01,19,10,02,26.10
2020,01,19,10,03,26.10
2020,01,19,10,04,26.10
2020,01,19,10,05,26.00
2020,01,19,10,06,26.00
2020,01,19,10,07,26.00
2020,01,19,10,08,26.00
2020,01,19,10,09,26.00
2020,01,19,10,10,26.00
2020,01,19,10,11,25.90
2020,01,19,10,12,25.90
2020,01,19,10,13,25.90
2020,01,19,10,14,25.90
2020,01,19,10,15,25.90
2020,01,19,10,16,25.90
2020,01,19,10,17,25.90
2020,01,19,10,18,25.90
2020,01,19,10,19,25.90
2020,01,19,10,20,25.80
2020,01,19,10,21,25.80
2020,01,19,10,22,25.90
2020,01,19,10,23,25.90
2020,01,19,10,24,25.90
2020,01,19,10,25,25.90
2020,01,19,10,26,25.90
2020,01,19,10,27,25.90
2020,01,19,10,28,25.90
2020,01,19,10,29,25.90
2020,01,19,10,30,25.90
2020,01,19,10,31,25.90
2020,01,19,10,32,25.90
2020,01,19,10,33,25.90
2020,01,19,10,34,25.90
2020,01,19,10,35,25.90
2020,01,19,10,36,25.90
2020,01,19,10,37,26.00
2020,01,19,10,38,26.00
2020,01,19,10,39,26.00
2020,01,19,10,40,26.00
2020,01,19,10,41,26.10
2020,01,19,10,42,26.10
2020,01,19,10,43,26.10
2020,01,19,10,44,26.10
2020,01,19,10,45,26.10
2020,01,19,10,46,26.10
2020,01,19,10,47,26.10
2020,01,19,10,48,26.10
2020,01,19,10,49,26.10
2020,01,19,10,50,26.10
2020,01,19,10,51,26.10
2020,01,19,10,52,26.10
2020,01,19,10,53,26.20
2020,01,19,10,54,26.20
2020,01,19,10,55,26.20
2020,01,19,10,56,26.10
2020,01,19,10,57,26.10
2020,01,19,10,58,26.10
2020,01,19,10,59,26.10
2020,01,19,11,00,26.10
2020,01,19,11,01,26.00
2020,01,19,11,02,26.00
2020,01,19,11,03,26.00
2020,01,19,11,04,26.00
2020,01,19,11,05,26.00
2020,01,19,11,06,26.00
2020,01,19,11,07,26.00
2020,01,19,11,08,26.00
2020,01,19,11,09,26.00
2020,01,19,11,10,26.00
2020,01,19,11,11,26.00
2020,01,19,11,12,26.00
2020,01,19,11,13,26.00
2020,01,19,11,14,26.00
2020,01,19,11,15,26.00
2020,01,19,11,16,26.00
2020,01,19,11,17,25.90
2020,01,19,11,18,25.90
2020,01,19,11,19,25.90
2020,01,19,11,20,25.90
2020,01,19,11,21,25.90
2020,01,19,11,22,25.80
2020,01,19,11,23,25.80
2020,01,19,11,24,25.80
2020,01,19,11,25,25.80
2020,01,19,11,26,25.70
2020,01,19,11,27,25.70
2020,01,19,11,28,25.70
2020,01,19,11,29,25.70
2020,01,19,11,30,25.70
2020,01,19,11,31,25.70
2020,01,19,11,32,25.70
2020,01,19,11,33,25.80
2020,01,19,11,34,25.80
2020,01,19,11,35,25.80
2020,01,19,11,36,25.80
2020,01,19,11,37,25.80
2020,01,19,11,38,25.90
2020,01,19,11,39,25.90
2020,01,19,11,40,25.90
2020,01,19,11,41,25.90
2020,01,19,11,42,25.90
2020,01,19,11,43,25.90
2020,01,19,11,44,25.90
2020,01,19,11,45,25.90
2020,01,19,11,46,26.00
2020,01,19,11,47,25.90
2020,01,19,11,48,25.90
2020,01,19,11,49,25.90
2020,01,19,11,50,25.90
2020,01,19,11,51,25.90
2020,01,19,11,52,25.90
2020,01,19,11,53,25.90
2020,01,19,11,54,25.90
2020,01,19,11,55,25.90
2020,01,19,11,56,25.90
2020,01,19,11,57,26.00
2020,01,19,11,58,26.00
2020,01,19,11,59,26.00
2020,01,19,12,00,25.90
2020,01,19,12,01,25.90
2020,01,19,12,02,25.90
2020,01,19,12,03,25.90
2020,01,19,12,04,25.90
2020,01,19,12,05,25.90
2020,01,19,12,06,25.90
2020,01,19,12,07,25.90
2020,01,19,12,08,25.90
2020,01,19,12,09,25.90
2020,01,19,12,10,25.90
2020,01,19,12,11,25.90
2020,01,19,12,12,25.90
2020,01,19,12,13,25.90
2020,01,19,12,14,26.00
2020,01,19,12,15,26.00
2020,01,19,12,16,26.00
2020,01,19,12,17,25.90
2020,01,19,12,18,25.90
2020,01,19,12,19,25.90
2020,01,19,12,20,25.90
2020,01,19,12,21,25.90
2020,01,19,12,22,25.90
2020,01,19,12,23,25.90
2020,01,19,12,24,25.90
2020,01,19,12,25,25.90
2020,01,19,12,26,25.90
2020,01,19,12,27,25.90
2020,01,19,12,28,25.90
2020,01,19,12,29,25.90
2020,01,19,12,30,25.90
2020,01,19,12,31,25.90
2020,01,19,12,32,25.90
2020,01,19,12,33,25.90
2020,01,19,12,34,25.90
2020,01,19,12,35,26.00
2020,01,19,12,36,26.00
2020,01,19,12,37,26.00
2020,01,19,12,38,26.00
2020,01,19,12,39,26.10
2020,01,19,12,40,26.10
2020,01,19,12,41,26.10
2020,01,19,12,42,26.10
2020,01,19,12,43,26.20
2020,01,19,12,44,26.20
2020,01,19,12,45,26.20
2020,01,19,12,46,26.20
2020,01,19,12,47,26.20
2020,01,19,12,48,26.20
2020,01,19,12,49,26.30
2020,01,19,12,50,26.30
2020,01,19,12,51,26.30
2020,01,19,12,52,26.30
2020,01,19,12,53,26.20
2020,01,19,12,54,26.20
2020,01,19,12,55,26.20
2020,01,19,12,56,26.20
2020,01,19,12,57,26.20
2020,01,19,12,58,26.20
2020,01,19,12,59,26.20
2020,01,19,13,00,26.20
2020,01,19,13,01,26.20
2020,01,19,13,02,26.20
2020,01,19,13,03,26.20
2020,01,19,13,04,26.30
2020,01,19,13,05,26.30
2020,01,19,13,06,26.30
2020,01,19,13,07,26.30
2020,01,19,13,08,26.30
2020,01,19,13,09,26.30
2020,01,19,13,10,26.30
2020,01,19,13,11,26.30
2020,01,19,13,12,26.30
2020,01,19,13,13,26.30
2020,01,19,13,14,26.30
2020,01,19,13,15,26.30
2020,01,19,13,16,26.30
2020,01,19,13,17,26.30
2020,01,19,13,18,26.30
2020,01,19,13,19,26.40
2020,01,19,13,20,26.50
2020,01,19,13,21,26.50
2020,01,19,13,22,26.60
2020,01,19,13,23,26.60
2020,01,19,13,24,26.60
2020,01,19,13,25,26.60
2020,01,19,13,26,26.60
2020,01,19,13,27,26.60
2020,01,19,13,28,26.60
2020,01,19,13,29,26.60
2020,01,19,13,30,26.60
2020,01,19,13,31,26.60
2020,01,19,13,32,26.60
2020,01,19,13,33,26.60
2020,01,19,13,34,26.60
2020,01,19,13,35,26.60
2020,01,19,13,36,26.50
2020,01,19,13,37,26.50
2020,01,19,13,38,26.50
2020,01,19,13,39,26.40
2020,01,19,13,40,26.40
2020,01,19,13,41,26.40
2020,01,19,13,42,26.40
2020,01,19,13,43,26.40
2020,01,19,13,44,26.40
2020,01,19,13,45,26.40
2020,01,19,13,46,26.40
2020,01,19,13,47,26.40
2020,01,19,13,48,26.40
2020,01,19,13,49,26.40
2020,01,19,13,50,26.40
2020,01,19,13,51,26.40
2020,01,19,13,52,26.40
2020,01,19,13,53,26.40
2020,01,19,13,54,26.40
2020,01,19,13,55,26.40
2020,01,19,13,56,26.40
2020,01,19,13,57,26.30
2020,01,19,13,58,26.30
2020,01,19,13,59,26.20
2020,01,19,14,00,26.20
2020,01,19,14,01,26.20
2020,01,19,14,02,26.20
2020,01,19,14,03,26.30
2020,01,19,14,04,26.30
2020,01,19,14,05,26.30
2020,01,19,14,06,26.30
2020,01,19,14,07,26.30
2020,01,19,14,08,26.30
2020,01,19,14,09,26.40
2020,01,19,14,10,26.40
2020,01,19,14,11,26.40
2020,01,19,14,12,26.30
2020,01,19,14,13,26.30
2020,01,19,14,14,26.30
2020,01,19,14,15,26.30
2020,01,19,14,16,26.30
2020,01,19,14,17,26.30
2020,01,19,14,18,26.30
2020,01,19,14,19,26.30
2020,01,19,14,20,26.30
2020,01,19,14,21,26.30
2020,01,19,14,22,26.30
2020,01,19,14,23,26.20
2020,01,19,14,24,26.20
2020,01,19,14,25,26.20
2020,01,19,14,26,26.20
2020,01,19,14,27,26.20
2020,01,19,14,28,26.20
2020,01,19,14,29,26.20
2020,01,19,14,30,26.30
2020,01,19,14,31,26.30
2020,01,19,14,32,26.30
2020,01,19,14,33,26.30
2020,01,19,14,34,26.30
2020,01,19,14,35,26.30
2020,01,19,14,36,26.30
2020,01,19,14,37,26.30
2020,01,19,14,38,26.30
2020,01,19,14,39,26.30
2020,01,19,14,40,26.30
2020,01,19,14,41,26.30
2020,01,19,14,42,26.30
2020,01,19,14,43,26.30
2020,01,19,14,44,26.30
2020,01,19,14,45,26.30
2020,01,19,14,46,26.30
2020,01,19,14,47,26.30
2020,01,19,14,48,26.30
2020,01,19,14,49,26.30
2020,01,19,14,50,26.30
2020,01,19,14,51,26.30
2020,01,19,14,52,26.30
2020,01,19,14,53,26.30
2020,01,19,14,54,26.30
2020,01,19,14,55,26.30
2020,01,19,14,56,26.30
2020,01,19,14,57,26.30
2020,01,19,14,58,26.40
2020,01,19,14,59,26.30
2020,01,19,15,00,26.30
2020,01,19,15,01,26.30
2020,01,19,15,02,26.30
2020,01,19,15,03,26.30
2020,01,19,15,04,26.30
2020,01,19,15,05,26.30
2020,01,19,15,06,26.30
2020,01,19,15,07,26.20
2020,01,19,15,08,26.20
2020,01,19,15,09,26.30
2020,01,19,15,10,26.30
2020,01,19,15,11,26.30
2020,01,19,15,12,26.20
2020,01,19,15,13,26.20
2020,01,19,15,14,26.20
2020,01,19,15,15,26.20
2020,01,19,15,16,26.20
2020,01,19,15,17,26.20
2020,01,19,15,18,26.20
2020,01,19,15,19,26.20
2020,01,19,15,20,26.20
2020,01,19,15,21,26.20
2020,01,19,15,22,26.20
2020,01,19,15,23,26.10
2020,01,19,15,24,26.10
2020,01,19,15,25,26.10
2020,01,19,15,26,26.10
2020,01,19,15,27,26.10
2020,01,19,15,28,26.00
2020,01,19,15,29,26.00
2020,01,19,15,30,26.00
2020,01,19,15,31,26.00
2020,01,19,15,32,26.00
2020,01,19,15,33,25.90
2020,01,19,15,34,25.90
2020,01,19,15,35,25.90
2020,01,19,15,36,25.90
2020,01,19,15,37,25.90
2020,01,19,15,38,25.90
2020,01,19,15,39,25.90
2020,01,19,15,40,25.90
2020,01,19,15,41,25.90
2020,01,19,15,42,25.80
2020,01,19,15,43,25.80
2020,01,19,15,44,25.80
2020,01,19,15,45,25.80
2020,01,19,15,46,25.80
2020,01,19,15,47,25.80
2020,01,19,15,48,25.80
2020,01,19,15,49,25.80
2020,01,19,15,50,25.80
2020,01,19,15,51,25.80
2020,01,19,15,52,25.80
2020,01,19,15,53,25.80
2020,01,19,15,54,25.80
2020,01,19,15,55,25.80
2020,01,19,15,56,25.80
2020,01,19,15,57,25.80
2020,01,19,15,58,25.80
2020,01,19,15,59,25.80
2020,01,19,16,00,25.80
2020,01,19,16,01,25.80
2020,01,19,16,02,25.80
2020,01,19,16,03,25.80
2020,01,19,16,04,25.80
2020,01,19,16,05,25.80
2020,01,19,16,06,25.80
2020,01,19,16,07,25.80
2020,01,19,16,08,25.80
2020,01,19,16,09,25.80
2020,01,19,16,10,25.80
2020,01,19,16,11,25.80
2020,01,19,16,12,25.80
2020,01,19,16,13,25.80
2020,01,19,16,14,25.80
2020,01,19,16,15,25.80
2020,01,19,16,16,25.80
2020,01,19,16,17,25.80
2020,01,19,16,18,25.80
2020,01,19,16,19,25.80
2020,01,19,16,20,25.80
2020,01,19,16,21,25.80
2020,01,19,16,22,25.90
2020,01,19,16,23,25.90
2020,01,19,16,24,25.90
2020,01,19,16,25,25.90
2020,01,19,16,26,25.90
2020,01,19,16,27,25.90
2020,01,19,16,28,25.90
2020,01,19,16,29,25.80
2020,01,19,16,30,25.90
2020,01,19,16,31,25.90
2020,01,19,16,32,25.90
2020,01,19,16,33,25.90
2020,01,19,16,34,25.80
2020,01,19,16,35,25.80
2020,01,19,16,36,25.80
2020,01,19,16,37,25.80
2020,01,19,16,38,25.80
2020,01,19,16,39,25.80
2020,01,19,16,40,25.80
2020,01,19,16,41,25.70
2020,01,19,16,42,25.70
2020,01,19,16,43,25.70
2020,01,19,16,44,25.70
2020,01,19,16,45,25.70
2020,01,19,16,46,25.70
2020,01,19,16,47,25.70
2020,01,19,16,48,25.70
2020,01,19,16,49,25.70
2020,01,19,16,50,25.70
2020,01,19,16,51,25.70
2020,01,19,16,52,25.70
2020,01,19,16,53,25.70
2020,01,19,16,54,25.60
2020,01,19,16,55,25.60
2020,01,19,16,56,25.70
2020,01,19,16,57,25.60
2020,01,19,16,58,25.60
2020,01,19,16,59,25.60
2020,01,19,17,00,25.60
2020,01,19,17,01,25.60
2020,01,19,17,02,25.60
2020,01,19,17,03,25.60
2020,01,19,17,04,25.60
2020,01,19,17,05,25.60
2020,01,19,17,06,25.60
2020,01,19,17,07,25.60
2020,01,19,17,08,25.70
2020,01,19,17,09,25.70
2020,01,19,17,10,25.70
2020,01,19,17,11,25.70
2020,01,19,17,12,25.70
2020,01,19,17,13,25.70
2020,01,19,17,14,25.70
2020,01,19,17,15,25.60
2020,01,19,17,16,25.60
2020,01,19,17,17,25.60
2020,01,19,17,18,25.60
2020,01,19,17,19,25.60